owner,sensor,date,latitude,longitude,vertical_datum,direction_of_sea_water_velocity,sea_water_speed,upward_sea_water_velocity,qcFlag 
TABS,ioos:station:wmo:42043:1,2001-05-11T13:00:00Z,28.9818,-94.9186,2.0,289.8083282,23.75552567,-99999.0,'11111222,11111222,99999999' 
TABS,ioos:station:wmo:42043:1,2001-05-11T13:30:00Z,28.9818,-94.9186,2.0,288.3618842,34.53842498,-99999.0,'11111222,11111222,99999999' 
TABS,ioos:station:wmo:42043:1,2001-05-11T14:00:00Z,28.9818,-94.9186,2.0,286.4833627,30.45143018,-99999.0,'11111222,11111222,99999999' 
TABS,ioos:station:wmo:42043:1,2001-05-11T14:30:00Z,28.9818,-94.9186,2.0,300.1979663,42.06893391,-99999.0,'11111222,11111222,99999999' 
TABS,ioos:station:wmo:42043:1,2001-05-11T15:00:00Z,28.9818,-94.9186,2.0,295.0839563,43.5910633,-99999.0,'11111222,11111222,99999999' 
TABS,ioos:station:wmo:42043:1,2001-05-11T15:30:00Z,28.9818,-94.9186,2.0,287.1679306,42.89097807,-99999.0,'11111222,11111222,99999999' 
TABS,ioos:station:wmo:42043:1,2001-05-11T16:00:00Z,28.9818,-94.9186,2.0,290.5579673,43.28649789,-99999.0,'11111222,11111222,99999999' 
TABS,ioos:station:wmo:42043:1,2001-05-11T16:30:00Z,28.9818,-94.9186,2.0,290.772627,46.21402601,-99999.0,'11111222,11111222,99999999' 
TABS,ioos:station:wmo:42043:1,2001-05-11T17:00:00Z,28.9818,-94.9186,2.0,279.4647195,47.1315457,-99999.0,'11111222,11111222,99999999' 
TABS,ioos:station:wmo:42043:1,2001-05-11T17:30:00Z,28.9818,-94.9186,2.0,269.0463285,36.06499134,-99999.0,'11111222,11111222,99999999' 
TABS,ioos:station:wmo:42043:1,2001-05-11T18:00:00Z,28.9818,-94.9186,2.0,262.1235379,36.99901891,-99999.0,'11111222,11111222,99999999' 
TABS,ioos:station:wmo:42043:1,2001-05-11T18:30:00Z,28.9818,-94.9186,2.0,249.0782259,30.4687709,-99999.0,'11111222,11111222,99999999' 
TABS,ioos:station:wmo:42043:1,2001-05-11T19:00:00Z,28.9818,-94.9186,2.0,248.9320419,41.03275033,-99999.0,'11111222,11111222,99999999' 
TABS,ioos:station:wmo:42043:1,2001-05-11T19:30:00Z,28.9818,-94.9186,2.0,221.889418,31.01696632,-99999.0,'11111222,11111222,99999999' 
TABS,ioos:station:wmo:42043:1,2001-05-11T20:00:00Z,28.9818,-94.9186,2.0,226.8597263,29.4099252,-99999.0,'11111222,11111222,99999999' 
TABS,ioos:station:wmo:42043:1,2001-05-11T20:30:00Z,28.9818,-94.9186,2.0,194.8478376,27.90167378,-99999.0,'11111222,11111222,99999999' 
TABS,ioos:station:wmo:42043:1,2001-05-11T21:00:00Z,28.9818,-94.9186,2.0,207.0868201,29.45023769,-99999.0,'11111222,11111222,99999999' 
TABS,ioos:station:wmo:42043:1,2001-05-11T21:30:00Z,28.9818,-94.9186,2.0,192.0217009,30.77495898,-99999.0,'11111222,11111222,99999999' 
TABS,ioos:station:wmo:42043:1,2001-05-11T22:00:00Z,28.9818,-94.9186,2.0,203.2311525,34.37734283,-99999.0,'11111222,11111222,99999999' 
TABS,ioos:station:wmo:42043:1,2001-05-11T22:30:00Z,28.9818,-94.9186,2.0,185.2714419,27.53647218,-99999.0,'11111222,11111222,99999999' 
TABS,ioos:station:wmo:42043:1,2001-05-11T23:00:00Z,28.9818,-94.9186,2.0,166.1144975,28.54411673,-99999.0,'11111222,11111222,99999999' 
TABS,ioos:station:wmo:42043:1,2001-05-11T23:30:00Z,28.9818,-94.9186,2.0,164.1369709,30.51193373,-99999.0,'11111222,11111222,99999999' 
TABS,ioos:station:wmo:42043:1,2001-05-12T00:00:00Z,28.9818,-94.9186,2.0,159.3764931,30.88952088,-99999.0,'11111222,11111222,99999999' 
TABS,ioos:station:wmo:42043:1,2001-05-12T00:30:00Z,28.9818,-94.9186,2.0,157.0864947,31.3865656,-99999.0,'11111222,11111222,99999999' 
TABS,ioos:station:wmo:42043:1,2001-05-12T01:00:00Z,28.9818,-94.9186,2.0,156.3652144,31.22951328,-99999.0,'11111222,11111222,99999999' 
TABS,ioos:station:wmo:42043:1,2001-05-12T01:30:00Z,28.9818,-94.9186,2.0,148.9389016,32.34810968,-99999.0,'11111222,11111222,99999999' 
TABS,ioos:station:wmo:42043:1,2001-05-12T02:00:00Z,28.9818,-94.9186,2.0,162.4141561,31.57564885,-99999.0,'11111222,11111222,99999999' 
TABS,ioos:station:wmo:42043:1,2001-05-12T02:30:00Z,28.9818,-94.9186,2.0,169.0426227,28.9884753,-99999.0,'11111222,11111222,99999999' 
TABS,ioos:station:wmo:42043:1,2001-05-12T03:00:00Z,28.9818,-94.9186,2.0,160.1373805,43.41257191,-99999.0,'11111222,11111222,99999999' 
TABS,ioos:station:wmo:42043:1,2001-05-12T03:30:00Z,28.9818,-94.9186,2.0,131.9415521,53.27859795,-99999.0,'11111222,11111222,99999999' 
TABS,ioos:station:wmo:42043:1,2001-05-12T04:00:00Z,28.9818,-94.9186,2.0,142.8128776,48.06273609,-99999.0,'11111222,11111222,99999999' 
TABS,ioos:station:wmo:42043:1,2001-05-12T04:30:00Z,28.9818,-94.9186,2.0,123.2269353,56.28171995,-99999.0,'11111222,11111222,99999999' 
TABS,ioos:station:wmo:42043:1,2001-05-12T05:00:00Z,28.9818,-94.9186,2.0,158.3063366,46.34221078,-99999.0,'11111222,11111222,99999999' 
TABS,ioos:station:wmo:42043:1,2001-05-12T05:30:00Z,28.9818,-94.9186,2.0,156.7234016,46.38535329,-99999.0,'11111222,11111222,99999999' 
TABS,ioos:station:wmo:42043:1,2001-05-12T06:00:00Z,28.9818,-94.9186,2.0,135.1368999,44.3569352,-99999.0,'11111222,11111222,99999999' 
TABS,ioos:station:wmo:42043:1,2001-05-12T06:30:00Z,28.9818,-94.9186,2.0,129.4101936,44.35559153,-99999.0,'11111222,11111222,99999999' 
TABS,ioos:station:wmo:42043:1,2001-05-12T07:00:00Z,28.9818,-94.9186,2.0,135.5299789,45.09412933,-99999.0,'11111222,11111222,99999999' 
TABS,ioos:station:wmo:42043:1,2001-05-12T07:30:00Z,28.9818,-94.9186,2.0,137.9717396,44.73516961,-99999.0,'11111222,11111222,99999999' 
TABS,ioos:station:wmo:42043:1,2001-05-12T08:00:00Z,28.9818,-94.9186,2.0,139.12437,48.27191834,-99999.0,'11111222,11111222,99999999' 
TABS,ioos:station:wmo:42043:1,2001-05-12T08:30:00Z,28.9818,-94.9186,2.0,141.1967851,46.83665765,-99999.0,'11111222,11111222,99999999' 
TABS,ioos:station:wmo:42043:1,2001-05-12T09:00:00Z,28.9818,-94.9186,2.0,137.5235174,45.44740367,-99999.0,'11111222,11111222,99999999' 
TABS,ioos:station:wmo:42043:1,2001-05-12T09:30:00Z,28.9818,-94.9186,2.0,121.1114021,41.24211682,-99999.0,'11111222,11111222,99999999' 
TABS,ioos:station:wmo:42043:1,2001-05-12T10:00:00Z,28.9818,-94.9186,2.0,98.51084491,41.28463395,-99999.0,'11111222,11111222,99999999' 
TABS,ioos:station:wmo:42043:1,2001-05-12T10:30:00Z,28.9818,-94.9186,2.0,95.13496678,36.64707901,-99999.0,'11111222,11111222,99999999' 
TABS,ioos:station:wmo:42043:1,2001-05-12T11:00:00Z,28.9818,-94.9186,2.0,95.32247319,40.10290887,-99999.0,'11111222,11111222,99999999' 
TABS,ioos:station:wmo:42043:1,2001-05-12T11:30:00Z,28.9818,-94.9186,2.0,92.43348926,38.62483269,-99999.0,'11111222,11111222,99999999' 
TABS,ioos:station:wmo:42043:1,2001-05-12T12:00:00Z,28.9818,-94.9186,2.0,99.29898105,41.5257089,-99999.0,'11111222,11111222,99999999' 
TABS,ioos:station:wmo:42043:1,2001-05-12T12:30:00Z,28.9818,-94.9186,2.0,73.53151775,42.57668141,-99999.0,'11111222,11111222,99999999' 
TABS,ioos:station:wmo:42043:1,2001-05-12T13:00:00Z,28.9818,-94.9186,2.0,104.837014,26.20368295,-99999.0,'11111222,11111222,99999999' 
TABS,ioos:station:wmo:42043:1,2001-05-12T13:30:00Z,28.9818,-94.9186,2.0,36.91819567,40.43801429,-99999.0,'11111222,11111222,99999999' 
TABS,ioos:station:wmo:42043:1,2001-05-12T14:00:00Z,28.9818,-94.9186,2.0,37.85650004,43.21440501,-99999.0,'11111222,11111222,99999999' 
TABS,ioos:station:wmo:42043:1,2001-05-12T14:30:00Z,28.9818,-94.9186,2.0,36.33241096,44.76197047,-99999.0,'11111222,11111222,99999999' 
TABS,ioos:station:wmo:42043:1,2001-05-12T15:00:00Z,28.9818,-94.9186,2.0,28.34554421,45.19933628,-99999.0,'11111222,11111222,99999999' 
TABS,ioos:station:wmo:42043:1,2001-05-12T15:30:00Z,28.9818,-94.9186,2.0,30.82687855,43.02911805,-99999.0,'11111222,11111222,99999999' 
TABS,ioos:station:wmo:42043:1,2001-05-12T16:00:00Z,28.9818,-94.9186,2.0,30.584611,42.74695896,-99999.0,'11111222,11111222,99999999' 
TABS,ioos:station:wmo:42043:1,2001-05-12T16:30:00Z,28.9818,-94.9186,2.0,21.07105088,48.06371708,-99999.0,'11111222,11111222,99999999' 
TABS,ioos:station:wmo:42043:1,2001-05-12T17:00:00Z,28.9818,-94.9186,2.0,35.95255439,31.47603533,-99999.0,'11111222,11111222,99999999' 
TABS,ioos:station:wmo:42043:1,2001-05-12T17:30:00Z,28.9818,-94.9186,2.0,50.58576912,33.56308985,-99999.0,'11111222,11111222,99999999' 
TABS,ioos:station:wmo:42043:1,2001-05-12T18:00:00Z,28.9818,-94.9186,2.0,39.17679346,43.6273538,-99999.0,'11111222,11111222,99999999' 
TABS,ioos:station:wmo:42043:1,2001-05-12T18:30:00Z,28.9818,-94.9186,2.0,40.30422002,47.67761739,-99999.0,'11111222,11111222,99999999' 
TABS,ioos:station:wmo:42043:1,2001-05-12T19:00:00Z,28.9818,-94.9186,2.0,48.91341544,49.42178568,-99999.0,'11111222,11111222,99999999' 
TABS,ioos:station:wmo:42043:1,2001-05-12T19:30:00Z,28.9818,-94.9186,2.0,65.52807074,45.67309164,-99999.0,'11111222,11111222,99999999' 
TABS,ioos:station:wmo:42043:1,2001-05-12T20:00:00Z,28.9818,-94.9186,2.0,102.8330614,44.93235471,-99999.0,'11111222,11111222,99999999' 
TABS,ioos:station:wmo:42043:1,2001-05-12T20:30:00Z,28.9818,-94.9186,2.0,114.1601762,42.95244463,-99999.0,'11111222,11111222,99999999' 
TABS,ioos:station:wmo:42043:1,2001-05-12T21:00:00Z,28.9818,-94.9186,2.0,152.7855151,41.043427,-99999.0,'11111222,11111222,99999999' 
TABS,ioos:station:wmo:42043:1,2001-05-12T21:30:00Z,28.9818,-94.9186,2.0,184.9827164,39.48924537,-99999.0,'11111222,11111222,99999999' 
TABS,ioos:station:wmo:42043:1,2001-05-12T22:00:00Z,28.9818,-94.9186,2.0,215.8494489,38.41808949,-99999.0,'11111222,11111222,99999999' 
TABS,ioos:station:wmo:42043:1,2001-05-12T22:30:00Z,28.9818,-94.9186,2.0,238.1028236,35.80679265,-99999.0,'11111222,11111222,99999999' 
TABS,ioos:station:wmo:42043:1,2001-05-12T23:00:00Z,28.9818,-94.9186,2.0,273.3877998,35.3717995,-99999.0,'11111222,11111222,99999999' 
TABS,ioos:station:wmo:42043:1,2001-05-12T23:30:00Z,28.9818,-94.9186,2.0,233.0800164,32.24601216,-99999.0,'11111222,11111222,99999999' 
TABS,ioos:station:wmo:42043:1,2001-05-13T00:00:00Z,28.9818,-94.9186,2.0,287.5177674,35.15006117,-99999.0,'11111222,11111222,99999999' 
TABS,ioos:station:wmo:42043:1,2001-05-13T00:30:00Z,28.9818,-94.9186,2.0,296.7794741,34.71296156,-99999.0,'11111222,11111222,99999999' 
TABS,ioos:station:wmo:42043:1,2001-05-13T01:00:00Z,28.9818,-94.9186,2.0,189.4196347,35.49868307,-99999.0,'11111222,11111222,99999999' 
TABS,ioos:station:wmo:42043:1,2001-05-13T01:30:00Z,28.9818,-94.9186,2.0,258.6896731,29.62530337,-99999.0,'11111222,11111222,99999999' 
TABS,ioos:station:wmo:42043:1,2001-05-13T02:00:00Z,28.9818,-94.9186,2.0,272.6414461,29.08088891,-99999.0,'11111222,11111222,99999999' 
TABS,ioos:station:wmo:42043:1,2001-05-13T02:30:00Z,28.9818,-94.9186,2.0,274.1162467,31.07013035,-99999.0,'11111222,11111222,99999999' 
TABS,ioos:station:wmo:42043:1,2001-05-13T03:00:00Z,28.9818,-94.9186,2.0,271.2964814,26.52678646,-99999.0,'11111222,11111222,99999999' 
TABS,ioos:station:wmo:42043:1,2001-05-13T03:30:00Z,28.9818,-94.9186,2.0,264.7822814,29.47210376,-99999.0,'11111222,11111222,99999999' 
TABS,ioos:station:wmo:42043:1,2001-05-13T04:00:00Z,28.9818,-94.9186,2.0,243.7039742,27.58443945,-99999.0,'11111222,11111222,99999999' 
TABS,ioos:station:wmo:42043:1,2001-05-13T04:30:00Z,28.9818,-94.9186,2.0,236.6627672,19.79762612,-99999.0,'11111222,11111222,99999999' 
TABS,ioos:station:wmo:42043:1,2001-05-13T05:00:00Z,28.9818,-94.9186,2.0,263.4318063,24.74237862,-99999.0,'11111222,11111222,99999999' 
TABS,ioos:station:wmo:42043:1,2001-05-13T05:30:00Z,28.9818,-94.9186,2.0,210.5848357,11.41862514,-99999.0,'11111222,11111222,99999999' 
TABS,ioos:station:wmo:42043:1,2001-05-13T06:00:00Z,28.9818,-94.9186,2.0,281.5130152,17.18576446,-99999.0,'11111222,11111222,99999999' 
TABS,ioos:station:wmo:42043:1,2001-05-13T06:30:00Z,28.9818,-94.9186,2.0,282.1767169,11.28385129,-99999.0,'11111222,11111222,99999999' 
TABS,ioos:station:wmo:42043:1,2001-05-13T07:00:00Z,28.9818,-94.9186,2.0,271.6719984,20.568753,-99999.0,'11111222,11111222,99999999' 
TABS,ioos:station:wmo:42043:1,2001-05-13T07:30:00Z,28.9818,-94.9186,2.0,282.8622353,19.4069266,-99999.0,'11111222,11111222,99999999' 
TABS,ioos:station:wmo:42043:1,2001-05-13T08:00:00Z,28.9818,-94.9186,2.0,248.2997845,15.7135642,-99999.0,'11111222,11111222,99999999' 
TABS,ioos:station:wmo:42043:1,2001-05-13T08:30:00Z,28.9818,-94.9186,2.0,238.7896515,12.37030719,-99999.0,'11111222,11111222,99999999' 
TABS,ioos:station:wmo:42043:1,2001-05-13T09:00:00Z,28.9818,-94.9186,2.0,222.0407138,14.24598189,-99999.0,'11111222,11111222,99999999' 
TABS,ioos:station:wmo:42043:1,2001-05-13T09:30:00Z,28.9818,-94.9186,2.0,233.5940031,14.81048615,-99999.0,'11111222,11111222,99999999' 
TABS,ioos:station:wmo:42043:1,2001-05-13T10:00:00Z,28.9818,-94.9186,2.0,236.4651639,14.30022377,-99999.0,'11111222,11111222,99999999' 
TABS,ioos:station:wmo:42043:1,2001-05-13T10:30:00Z,28.9818,-94.9186,2.0,262.718598,14.12388757,-99999.0,'11111222,11111222,99999999' 
TABS,ioos:station:wmo:42043:1,2001-05-13T11:00:00Z,28.9818,-94.9186,2.0,286.5133752,14.14333765,-99999.0,'11111222,11111222,99999999' 
TABS,ioos:station:wmo:42043:1,2001-05-13T11:30:00Z,28.9818,-94.9186,2.0,283.4961226,15.94015056,-99999.0,'11111222,11111222,99999999' 
TABS,ioos:station:wmo:42043:1,2001-05-13T12:00:00Z,28.9818,-94.9186,2.0,299.3208282,16.74514855,-99999.0,'11111222,11111222,99999999' 
TABS,ioos:station:wmo:42043:1,2001-05-13T12:30:00Z,28.9818,-94.9186,2.0,315.695055,17.49510789,-99999.0,'11111222,11111222,99999999' 
TABS,ioos:station:wmo:42043:1,2001-05-13T13:00:00Z,28.9818,-94.9186,2.0,305.611654,13.56727312,-99999.0,'11111222,11111222,99999999' 
TABS,ioos:station:wmo:42043:1,2001-05-13T13:30:00Z,28.9818,-94.9186,2.0,62.26388319,13.12846145,-99999.0,'11111222,11111222,99999999' 
TABS,ioos:station:wmo:42043:1,2001-05-13T14:00:00Z,28.9818,-94.9186,2.0,38.74227916,17.38528113,-99999.0,'11111222,11111222,99999999' 
TABS,ioos:station:wmo:42043:1,2001-05-13T14:30:00Z,28.9818,-94.9186,2.0,359.2926016,24.29185254,-99999.0,'11111222,11144222,99999999' 
TABS,ioos:station:wmo:42043:1,2001-05-13T15:00:00Z,28.9818,-94.9186,2.0,13.66087794,17.0215158,-99999.0,'11111222,11111222,99999999' 
TABS,ioos:station:wmo:42043:1,2001-05-13T15:30:00Z,28.9818,-94.9186,2.0,30.10811807,17.2238091,-99999.0,'11111222,11111222,99999999' 
TABS,ioos:station:wmo:42043:1,2001-05-13T16:00:00Z,28.9818,-94.9186,2.0,260.9910964,6.641927431,-99999.0,'11133222,11111222,99999999' 
TABS,ioos:station:wmo:42043:1,2001-05-13T16:30:00Z,28.9818,-94.9186,2.0,55.35812689,17.02887254,-99999.0,'11111222,11111222,99999999' 
TABS,ioos:station:wmo:42043:1,2001-05-13T17:00:00Z,28.9818,-94.9186,2.0,38.72950123,19.29215903,-99999.0,'11111222,11111222,99999999' 
TABS,ioos:station:wmo:42043:1,2001-05-13T17:30:00Z,28.9818,-94.9186,2.0,70.99024088,14.18352918,-99999.0,'11111222,11111222,99999999' 
TABS,ioos:station:wmo:42043:1,2001-05-13T18:00:00Z,28.9818,-94.9186,2.0,78.43577128,18.55669152,-99999.0,'11111222,11111222,99999999' 
TABS,ioos:station:wmo:42043:1,2001-05-13T18:30:00Z,28.9818,-94.9186,2.0,81.00211528,24.74450444,-99999.0,'11111222,11111222,99999999' 
TABS,ioos:station:wmo:42043:1,2001-05-13T19:00:00Z,28.9818,-94.9186,2.0,102.8163948,18.79834567,-99999.0,'11111222,11111222,99999999' 
TABS,ioos:station:wmo:42043:1,2001-05-13T19:30:00Z,28.9818,-94.9186,2.0,133.0112616,6.113084328,-99999.0,'11133222,11111222,99999999' 
TABS,ioos:station:wmo:42043:1,2001-05-13T20:00:00Z,28.9818,-94.9186,2.0,83.40626103,25.95166276,-99999.0,'11111222,11111222,99999999' 
TABS,ioos:station:wmo:42043:1,2001-05-13T20:30:00Z,28.9818,-94.9186,2.0,88.01118031,21.32284456,-99999.0,'11111222,11111222,99999999' 
TABS,ioos:station:wmo:42043:1,2001-05-13T21:00:00Z,28.9818,-94.9186,2.0,107.0285848,19.32733815,-99999.0,'11111222,11111222,99999999' 
TABS,ioos:station:wmo:42043:1,2001-05-13T21:30:00Z,28.9818,-94.9186,2.0,105.7445091,19.2003776,-99999.0,'11111222,11111222,99999999' 
TABS,ioos:station:wmo:42043:1,2001-05-13T22:00:00Z,28.9818,-94.9186,2.0,105.4779108,24.581491,-99999.0,'11111222,11111222,99999999' 
TABS,ioos:station:wmo:42043:1,2001-05-13T22:30:00Z,28.9818,-94.9186,2.0,104.6148853,28.33688233,-99999.0,'11111222,11111222,99999999' 
TABS,ioos:station:wmo:42043:1,2001-05-13T23:00:00Z,28.9818,-94.9186,2.0,111.579996,28.35774674,-99999.0,'11111222,11111222,99999999' 
TABS,ioos:station:wmo:42043:1,2001-05-13T23:30:00Z,28.9818,-94.9186,2.0,124.1838567,28.63746148,-99999.0,'11111222,11111222,99999999' 
TABS,ioos:station:wmo:42043:1,2001-05-14T00:00:00Z,28.9818,-94.9186,2.0,141.931818,27.06791828,-99999.0,'11111222,11111222,99999999' 
TABS,ioos:station:wmo:42043:1,2001-05-14T00:30:00Z,28.9818,-94.9186,2.0,158.6608833,27.83849493,-99999.0,'11111222,11111222,99999999' 
TABS,ioos:station:wmo:42043:1,2001-05-14T01:00:00Z,28.9818,-94.9186,2.0,135.9154078,39.82933843,-99999.0,'11111222,11111222,99999999' 
TABS,ioos:station:wmo:42043:1,2001-05-14T01:30:00Z,28.9818,-94.9186,2.0,139.7119336,38.47644604,-99999.0,'11111222,11111222,99999999' 
TABS,ioos:station:wmo:42043:1,2001-05-14T02:00:00Z,28.9818,-94.9186,2.0,128.8030044,46.83665765,-99999.0,'11111222,11111222,99999999' 
TABS,ioos:station:wmo:42043:1,2001-05-14T02:30:00Z,28.9818,-94.9186,2.0,132.3853913,46.19387405,-99999.0,'11111222,11111222,99999999' 
TABS,ioos:station:wmo:42043:1,2001-05-14T03:00:00Z,28.9818,-94.9186,2.0,123.8329944,51.1157823,-99999.0,'11111222,11111222,99999999' 
TABS,ioos:station:wmo:42043:1,2001-05-14T03:30:00Z,28.9818,-94.9186,2.0,125.5541869,48.17069856,-99999.0,'11111222,11111222,99999999' 
TABS,ioos:station:wmo:42043:1,2001-05-14T04:00:00Z,28.9818,-94.9186,2.0,133.9257837,44.88795495,-99999.0,'11111222,11111222,99999999' 
TABS,ioos:station:wmo:42043:1,2001-05-14T04:30:00Z,28.9818,-94.9186,2.0,123.0943182,48.02021762,-99999.0,'11111222,11111222,99999999' 
TABS,ioos:station:wmo:42043:1,2001-05-14T05:00:00Z,28.9818,-94.9186,2.0,155.710624,31.87121899,-99999.0,'11111222,11111222,99999999' 
TABS,ioos:station:wmo:42043:1,2001-05-14T05:30:00Z,28.9818,-94.9186,2.0,143.3074085,39.3961889,-99999.0,'11111222,11111222,99999999' 
TABS,ioos:station:wmo:42043:1,2001-05-14T06:00:00Z,28.9818,-94.9186,2.0,156.8986727,23.1677405,-99999.0,'11111222,11111222,99999999' 
TABS,ioos:station:wmo:42043:1,2001-05-14T06:30:00Z,28.9818,-94.9186,2.0,152.0682061,25.12713474,-99999.0,'11111222,11111222,99999999' 
TABS,ioos:station:wmo:42043:1,2001-05-14T07:00:00Z,28.9818,-94.9186,2.0,143.9781693,22.29244267,-99999.0,'11111222,11111222,99999999' 
TABS,ioos:station:wmo:42043:1,2001-05-14T07:30:00Z,28.9818,-94.9186,2.0,169.0034207,21.86139291,-99999.0,'11111222,11111222,99999999' 
TABS,ioos:station:wmo:42043:1,2001-05-14T08:00:00Z,28.9818,-94.9186,2.0,169.6047556,27.26754114,-99999.0,'11111222,11111222,99999999' 
TABS,ioos:station:wmo:42043:1,2001-05-14T08:30:00Z,28.9818,-94.9186,2.0,183.1445082,27.16090021,-99999.0,'11111222,11111222,99999999' 
TABS,ioos:station:wmo:42043:1,2001-05-14T09:00:00Z,28.9818,-94.9186,2.0,185.4492846,26.64040728,-99999.0,'11111222,11111222,99999999' 
TABS,ioos:station:wmo:42043:1,2001-05-14T09:30:00Z,28.9818,-94.9186,2.0,175.4870309,24.65643932,-99999.0,'11111222,11111222,99999999' 
TABS,ioos:station:wmo:42043:1,2001-05-14T10:00:00Z,28.9818,-94.9186,2.0,175.6513522,23.6079584,-99999.0,'11111222,11111222,99999999' 
TABS,ioos:station:wmo:42043:1,2001-05-14T10:30:00Z,28.9818,-94.9186,2.0,162.4989692,23.27745691,-99999.0,'11111222,11111222,99999999' 
TABS,ioos:station:wmo:42043:1,2001-05-14T11:00:00Z,28.9818,-94.9186,2.0,156.8986727,23.1677405,-99999.0,'11111222,11111222,99999999' 
TABS,ioos:station:wmo:42043:1,2001-05-14T11:30:00Z,28.9818,-94.9186,2.0,151.3667601,20.20037871,-99999.0,'11111222,11111222,99999999' 
TABS,ioos:station:wmo:42043:1,2001-05-14T12:00:00Z,28.9818,-94.9186,2.0,154.8152629,27.65924439,-99999.0,'11111222,11111222,99999999' 
TABS,ioos:station:wmo:42043:1,2001-05-14T12:30:00Z,28.9818,-94.9186,2.0,146.5936958,24.62899105,-99999.0,'11111222,11111222,99999999' 
TABS,ioos:station:wmo:42043:1,2001-05-14T13:00:00Z,28.9818,-94.9186,2.0,157.807124,20.12055914,-99999.0,'11111222,11111222,99999999' 
TABS,ioos:station:wmo:42043:1,2001-05-14T13:30:00Z,28.9818,-94.9186,2.0,193.8997444,14.27811262,-99999.0,'11111222,11111222,99999999' 
TABS,ioos:station:wmo:42043:1,2001-05-14T14:00:00Z,28.9818,-94.9186,2.0,176.931473,22.23187127,-99999.0,'11111222,11111222,99999999' 
TABS,ioos:station:wmo:42043:1,2001-05-14T14:30:00Z,28.9818,-94.9186,2.0,180.8604506,19.97225325,-99999.0,'11111222,11111222,99999999' 
TABS,ioos:station:wmo:42043:1,2001-05-14T15:00:00Z,28.9818,-94.9186,2.0,180.4088424,21.01053545,-99999.0,'11111222,11111222,99999999' 
TABS,ioos:station:wmo:42043:1,2001-05-14T15:30:00Z,28.9818,-94.9186,2.0,170.0644837,23.29941845,-99999.0,'11111222,11111222,99999999' 
TABS,ioos:station:wmo:42043:1,2001-05-14T16:00:00Z,28.9818,-94.9186,2.0,172.9753198,21.91449064,-99999.0,'11111222,11111222,99999999' 
TABS,ioos:station:wmo:42043:1,2001-05-14T16:30:00Z,28.9818,-94.9186,2.0,216.4970618,13.53428609,-99999.0,'11111222,11111222,99999999' 
TABS,ioos:station:wmo:42043:1,2001-05-14T17:00:00Z,28.9818,-94.9186,2.0,169.9881462,18.00416063,-99999.0,'11111222,11111222,99999999' 
TABS,ioos:station:wmo:42043:1,2001-05-14T17:30:00Z,28.9818,-94.9186,2.0,150.7877647,20.14163102,-99999.0,'11111222,11111222,99999999' 
TABS,ioos:station:wmo:42043:1,2001-05-14T18:00:00Z,28.9818,-94.9186,2.0,139.2949343,23.98170136,-99999.0,'11111222,11111222,99999999' 
TABS,ioos:station:wmo:42043:1,2001-05-14T18:30:00Z,28.9818,-94.9186,2.0,135.5766771,21.07284983,-99999.0,'11111222,11111222,99999999' 
TABS,ioos:station:wmo:42043:1,2001-05-14T19:00:00Z,28.9818,-94.9186,2.0,123.5563044,20.20778315,-99999.0,'11111222,11111222,99999999' 
TABS,ioos:station:wmo:42043:1,2001-05-14T19:30:00Z,28.9818,-94.9186,2.0,125.3205843,14.42527296,-99999.0,'11111222,11111222,99999999' 
TABS,ioos:station:wmo:42043:1,2001-05-14T20:00:00Z,28.9818,-94.9186,2.0,125.9949126,19.51627526,-99999.0,'11111222,11111222,99999999' 
TABS,ioos:station:wmo:42043:1,2001-05-14T20:30:00Z,28.9818,-94.9186,2.0,126.7892107,19.90401969,-99999.0,'11111222,11111222,99999999' 
TABS,ioos:station:wmo:42043:1,2001-05-14T21:00:00Z,28.9818,-94.9186,2.0,119.0129659,18.74193693,-99999.0,'11111222,11111222,99999999' 
TABS,ioos:station:wmo:42043:1,2001-05-14T21:30:00Z,28.9818,-94.9186,2.0,165.3777818,20.63843502,-99999.0,'11111222,11111222,99999999' 
TABS,ioos:station:wmo:42043:1,2001-05-14T22:00:00Z,28.9818,-94.9186,2.0,141.1495056,20.66034124,-99999.0,'11111222,11111222,99999999' 
TABS,ioos:station:wmo:42043:1,2001-05-14T22:30:00Z,28.9818,-94.9186,2.0,146.9639152,21.86493311,-99999.0,'11111222,11111222,99999999' 
TABS,ioos:station:wmo:42043:1,2001-05-14T23:00:00Z,28.9818,-94.9186,2.0,134.7070746,20.75385506,-99999.0,'11111222,11111222,99999999' 
TABS,ioos:station:wmo:42043:1,2001-05-14T23:30:00Z,28.9818,-94.9186,2.0,161.3360076,23.74889471,-99999.0,'11111222,11111222,99999999' 
TABS,ioos:station:wmo:42043:1,2001-05-15T00:00:00Z,28.9818,-94.9186,2.0,148.4663846,25.35388925,-99999.0,'11111222,11111222,99999999' 
TABS,ioos:station:wmo:42043:1,2001-05-15T00:30:00Z,28.9818,-94.9186,2.0,150.4569254,32.02348669,-99999.0,'11111222,11111222,99999999' 
TABS,ioos:station:wmo:42043:1,2001-05-15T01:00:00Z,28.9818,-94.9186,2.0,149.0431746,27.79992086,-99999.0,'11111222,11111222,99999999' 
TABS,ioos:station:wmo:42043:1,2001-05-15T01:30:00Z,28.9818,-94.9186,2.0,138.6346932,41.49163771,-99999.0,'11111222,11111222,99999999' 
TABS,ioos:station:wmo:42043:1,2001-05-15T02:00:00Z,28.9818,-94.9186,2.0,134.0733613,52.47418413,-99999.0,'11111222,11111222,99999999' 
TABS,ioos:station:wmo:42043:1,2001-05-15T02:30:00Z,28.9818,-94.9186,2.0,152.1080482,49.05906746,-99999.0,'11111222,11111222,99999999' 
TABS,ioos:station:wmo:42043:1,2001-05-15T03:00:00Z,28.9818,-94.9186,2.0,140.8590355,52.64334526,-99999.0,'11111222,11111222,99999999' 
TABS,ioos:station:wmo:42043:1,2001-05-15T03:30:00Z,28.9818,-94.9186,2.0,135.5357585,55.94873546,-99999.0,'11111222,11111222,99999999' 
TABS,ioos:station:wmo:42043:1,2001-05-15T04:00:00Z,28.9818,-94.9186,2.0,149.011736,60.48241149,-99999.0,'11111222,11111222,99999999' 
TABS,ioos:station:wmo:42043:1,2001-05-15T04:30:00Z,28.9818,-94.9186,2.0,148.8084193,57.82977953,-99999.0,'11111222,11111222,99999999' 
TABS,ioos:station:wmo:42043:1,2001-05-15T05:00:00Z,28.9818,-94.9186,2.0,161.7036903,57.43345541,-99999.0,'11111222,11111222,99999999' 